BAW858V EGLL-LKPR

Flight info

Callsign BAW858V
Flight time 1h 34m
Altitude 37000
Route BPK6J BPK Q295 BRAIN M197 REDFA DCT TACHA DCT NOMKA DCT SUVUT L620 PIKIB T620 LALUK DCT GOLOP GOLOP5R
Aircraft A319/M-SDE2E3FGHIJ1RWXY/SB1

Departure

Time 2026-05-06 16:36
Airport London Heathrow Airport (EGLL)

Arrival

Time 2026-05-06 18:10
Airport Václav Havel Airport Prague (LKPR)
Time Latitude Longitude Altitude Speed Heading
2026-05-06 16:10 51.47316 -0.48591 86 ft 0 kts 269°
2026-05-06 16:26 51.47316 -0.48586 86 ft 3 kts 269°
2026-05-06 16:26 51.47316 -0.48544 86 ft 4 kts 269°
2026-05-06 16:27 51.47316 -0.48510 86 ft 4 kts 257°
2026-05-06 16:27 51.47327 -0.48478 91 ft 4 kts 200°
2026-05-06 16:27 51.47351 -0.48474 89 ft 3 kts 179°
2026-05-06 16:27 51.47354 -0.48474 86 ft 0 kts 179°
2026-05-06 16:29 51.47350 -0.48474 90 ft 2 kts 179°
2026-05-06 16:29 51.47326 -0.48473 86 ft 5 kts 178°
2026-05-06 16:30 51.47283 -0.48470 86 ft 7 kts 178°
2026-05-06 16:30 51.47246 -0.48469 88 ft 9 kts 179°
2026-05-06 16:30 51.47153 -0.48473 86 ft 11 kts 182°
2026-05-06 16:30 51.47068 -0.48479 86 ft 13 kts 180°
2026-05-06 16:31 51.46970 -0.48475 86 ft 15 kts 178°
2026-05-06 16:31 51.46858 -0.48470 86 ft 17 kts 179°
2026-05-06 16:31 51.46734 -0.48468 86 ft 19 kts 179°
2026-05-06 16:31 51.46629 -0.48467 86 ft 7 kts 180°
2026-05-06 16:32 51.46595 -0.48467 86 ft 0 kts 180°
2026-05-06 16:34 51.46588 -0.48467 90 ft 3 kts 180°
2026-05-06 16:34 51.46553 -0.48467 89 ft 7 kts 180°
2026-05-06 16:34 51.46492 -0.48458 88 ft 10 kts 155°
2026-05-06 16:34 51.46479 -0.48406 87 ft 0 kts 91°
2026-05-06 16:35 51.46479 -0.48404 87 ft 2 kts 91°
2026-05-06 16:36 51.46479 -0.48180 88 ft 52 kts 90°
2026-05-06 16:36 51.46485 -0.47234 88 ft 115 kts 90°
2026-05-06 16:36 51.46503 -0.45674 132 ft 159 kts 84°
2026-05-06 16:36 51.46514 -0.43908 758 ft 159 kts 88°
2026-05-06 16:37 51.46552 -0.42140 1432 ft 160 kts 78°
2026-05-06 16:37 51.46996 -0.40433 1766 ft 177 kts 50°
2026-05-06 16:37 51.47842 -0.38831 2073 ft 201 kts 47°
2026-05-06 16:37 51.48804 -0.37004 2527 ft 227 kts 47°
2026-05-06 16:38 51.49863 -0.34977 3221 ft 245 kts 48°
2026-05-06 16:38 51.50971 -0.32842 4189 ft 252 kts 49°
2026-05-06 16:38 51.52067 -0.30611 5196 ft 259 kts 56°
2026-05-06 16:38 51.52761 -0.27907 6193 ft 266 kts 69°
2026-05-06 16:39 51.53362 -0.25074 7142 ft 270 kts 68°
2026-05-06 16:39 51.54269 -0.22422 7988 ft 274 kts 49°
2026-05-06 16:39 51.55675 -0.20421 8863 ft 275 kts 29°
2026-05-06 16:39 51.57449 -0.19109 9797 ft 280 kts 20°
2026-05-06 16:40 51.59260 -0.17941 10392 ft 294 kts 16°
2026-05-06 16:40 51.61257 -0.17003 10668 ft 315 kts 13°
2026-05-06 16:40 51.63401 -0.16017 10912 ft 327 kts 13°
2026-05-06 16:40 51.65609 -0.15004 11617 ft 332 kts 14°
2026-05-06 16:41 51.67843 -0.13974 12369 ft 337 kts 14°
2026-05-06 16:41 51.70105 -0.12855 13114 ft 343 kts 20°
2026-05-06 16:41 51.72208 -0.10965 13841 ft 351 kts 34°
2026-05-06 16:41 51.73960 -0.08178 14477 ft 359 kts 51°
2026-05-06 16:42 51.75205 -0.04646 15100 ft 367 kts 67°
2026-05-06 16:42 51.75823 -0.00617 15747 ft 373 kts 82°
2026-05-06 16:42 51.76165 0.03546 16358 ft 377 kts 82°
2026-05-06 16:42 51.76512 0.07778 16987 ft 382 kts 82°
2026-05-06 16:43 51.76861 0.12046 17661 ft 385 kts 82°
2026-05-06 16:43 51.77212 0.16347 18314 ft 389 kts 82°
2026-05-06 16:43 51.77568 0.20703 18863 ft 393 kts 82°
2026-05-06 16:43 51.77927 0.25094 19459 ft 396 kts 82°
2026-05-06 16:44 51.78283 0.29463 20012 ft 400 kts 82°
2026-05-06 16:44 51.78645 0.33927 20613 ft 402 kts 82°
2026-05-06 16:44 51.79010 0.38428 21188 ft 406 kts 82°
2026-05-06 16:44 51.79374 0.42974 21738 ft 410 kts 82°
2026-05-06 16:45 51.79736 0.47557 22302 ft 413 kts 82°
2026-05-06 16:45 51.80100 0.52180 22841 ft 416 kts 83°
2026-05-06 16:45 51.80463 0.56823 23385 ft 419 kts 83°
2026-05-06 16:45 51.80827 0.61509 23846 ft 422 kts 83°
2026-05-06 16:46 51.81277 0.66224 24235 ft 426 kts 77°
2026-05-06 16:46 51.81997 0.70886 24669 ft 429 kts 76°
2026-05-06 16:46 51.82726 0.75586 25101 ft 431 kts 76°
2026-05-06 16:46 51.83449 0.80298 25538 ft 434 kts 76°
2026-05-06 16:47 51.84204 0.85033 25953 ft 436 kts 74°
2026-05-06 16:47 51.85037 0.89769 26398 ft 438 kts 73°
2026-05-06 16:47 51.85618 0.92905 26677 ft 440 kts 72°
2026-05-06 16:47 51.86809 0.99206 27248 ft 443 kts 72°
2026-05-06 16:48 51.87710 1.03979 27715 ft 444 kts 73°
2026-05-06 16:48 51.88603 1.08780 28137 ft 447 kts 73°
2026-05-06 16:48 51.89488 1.13613 28551 ft 449 kts 73°
2026-05-06 16:48 51.90081 1.16900 28820 ft 451 kts 73°
2026-05-06 16:49 51.90955 1.21788 29212 ft 453 kts 73°
2026-05-06 16:49 51.91818 1.26643 29587 ft 456 kts 74°
2026-05-06 16:49 51.92693 1.31590 29957 ft 458 kts 74°
2026-05-06 16:49 51.93575 1.36563 30289 ft 460 kts 74°
2026-05-06 16:50 51.94462 1.41564 30599 ft 462 kts 74°
2026-05-06 16:50 51.95350 1.46587 30897 ft 465 kts 74°
2026-05-06 16:50 51.96240 1.51637 31188 ft 467 kts 74°
2026-05-06 16:50 51.97133 1.56703 31546 ft 467 kts 74°
2026-05-06 16:51 51.98019 1.61762 31990 ft 466 kts 74°
2026-05-06 16:51 51.98901 1.66810 32416 ft 465 kts 74°
2026-05-06 16:51 51.99765 1.71856 32853 ft 463 kts 75°
2026-05-06 16:51 52.00582 1.76910 33279 ft 463 kts 75°
2026-05-06 16:52 52.01362 1.81975 33723 ft 461 kts 76°
2026-05-06 16:52 52.02120 1.87012 34123 ft 461 kts 76°
2026-05-06 16:52 52.02877 1.92076 34469 ft 460 kts 76°
2026-05-06 16:52 52.03637 1.97125 34778 ft 461 kts 76°
2026-05-06 16:53 52.04410 2.02195 35059 ft 462 kts 76°
2026-05-06 16:53 52.05189 2.07266 35373 ft 463 kts 76°
2026-05-06 16:53 52.05972 2.12344 35653 ft 463 kts 76°
2026-05-06 16:53 52.06753 2.17426 35953 ft 464 kts 76°
2026-05-06 16:54 52.07531 2.22511 36221 ft 464 kts 76°
2026-05-06 16:54 52.08304 2.27608 36505 ft 465 kts 76°
2026-05-06 16:54 52.09073 2.32716 36760 ft 465 kts 76°
2026-05-06 16:54 52.09840 2.37838 36921 ft 466 kts 76°
2026-05-06 16:55 52.10593 2.42895 36967 ft 466 kts 76°
2026-05-06 16:55 52.12172 2.53111 36962 ft 466 kts 75°
2026-05-06 16:56 52.14080 2.63202 36959 ft 466 kts 72°
2026-05-06 16:56 52.16104 2.73232 36959 ft 466 kts 72°
2026-05-06 16:57 52.18054 2.83304 36956 ft 467 kts 73°
2026-05-06 16:57 52.19938 2.93424 36959 ft 467 kts 73°
2026-05-06 16:58 52.21811 3.03569 36944 ft 467 kts 73°
2026-05-06 16:58 52.23682 3.13702 36946 ft 467 kts 73°
2026-05-06 16:59 52.25127 3.24009 36948 ft 466 kts 86°
2026-05-06 16:59 52.24780 3.34520 36944 ft 464 kts 99°
2026-05-06 17:00 52.23945 3.44876 36938 ft 464 kts 99°
2026-05-06 17:00 52.23114 3.55318 36927 ft 465 kts 99°
2026-05-06 17:01 52.22259 3.65779 36927 ft 465 kts 99°
2026-05-06 17:01 52.21384 3.76240 36931 ft 465 kts 99°
2026-05-06 17:02 52.20502 3.86678 36933 ft 465 kts 99°
2026-05-06 17:02 52.19617 3.97118 36919 ft 465 kts 99°
2026-05-06 17:03 52.18732 4.07540 36936 ft 464 kts 99°
2026-05-06 17:03 52.17836 4.17935 36937 ft 463 kts 99°
2026-05-06 17:04 52.16923 4.28298 36932 ft 462 kts 99°
2026-05-06 17:04 52.16005 4.38650 36932 ft 461 kts 100°
2026-05-06 17:05 52.15077 4.48984 36934 ft 461 kts 100°
2026-05-06 17:05 52.14151 4.59248 36925 ft 461 kts 100°
2026-05-06 17:06 52.13213 4.69563 36922 ft 461 kts 100°
2026-05-06 17:06 52.12265 4.79845 36919 ft 461 kts 100°
2026-05-06 17:07 52.11305 4.90134 36919 ft 461 kts 100°
2026-05-06 17:07 52.10822 4.95292 36768 ft 460 kts 101°
2026-05-06 17:07 52.10338 5.00448 36912 ft 463 kts 101°
2026-05-06 17:08 52.09352 5.10846 36935 ft 465 kts 101°
2026-05-06 17:08 52.08351 5.21229 36935 ft 465 kts 101°
2026-05-06 17:09 52.07344 5.31595 36918 ft 464 kts 101°
2026-05-06 17:09 52.06335 5.41951 36909 ft 464 kts 101°
2026-05-06 17:10 52.05316 5.52321 36913 ft 465 kts 102°
2026-05-06 17:10 52.04287 5.62685 36914 ft 465 kts 102°
2026-05-06 17:11 52.03256 5.72974 36921 ft 465 kts 102°
2026-05-06 17:11 52.02209 5.83341 36908 ft 465 kts 102°
2026-05-06 17:12 52.01145 5.93689 36898 ft 465 kts 102°
2026-05-06 17:12 52.00077 6.04032 36896 ft 465 kts 102°
2026-05-06 17:13 51.98993 6.14389 36889 ft 465 kts 102°
2026-05-06 17:13 51.97906 6.24749 36898 ft 466 kts 102°
2026-05-06 17:14 51.96815 6.35107 36898 ft 466 kts 102°
2026-05-06 17:14 51.95717 6.45411 36883 ft 466 kts 103°
2026-05-06 17:15 51.94595 6.55826 36892 ft 466 kts 103°
2026-05-06 17:15 51.93474 6.66115 36886 ft 467 kts 103°
2026-05-06 17:16 51.92329 6.76479 36880 ft 467 kts 103°
2026-05-06 17:16 51.91182 6.86827 36866 ft 467 kts 103°
2026-05-06 17:17 51.90033 6.97166 36874 ft 467 kts 103°
2026-05-06 17:17 51.88870 7.07518 36866 ft 467 kts 103°
2026-05-06 17:18 51.87705 7.17798 36876 ft 467 kts 103°
2026-05-06 17:18 51.86521 7.28144 36871 ft 467 kts 103°
2026-05-06 17:19 51.85330 7.38463 36863 ft 467 kts 104°
2026-05-06 17:19 51.84130 7.48800 36864 ft 468 kts 104°
2026-05-06 17:20 51.82922 7.59145 36873 ft 468 kts 104°
2026-05-06 17:20 51.81704 7.69479 36864 ft 468 kts 104°
2026-05-06 17:21 51.80472 7.79805 36847 ft 468 kts 104°
2026-05-06 17:21 51.79223 7.90116 36844 ft 468 kts 104°
2026-05-06 17:22 51.77975 8.00437 36855 ft 468 kts 104°
2026-05-06 17:22 51.76726 8.10756 36856 ft 468 kts 104°
2026-05-06 17:23 51.75467 8.21003 36853 ft 468 kts 104°
2026-05-06 17:23 51.74197 8.31298 36840 ft 468 kts 104°
2026-05-06 17:24 51.72908 8.41624 36833 ft 468 kts 104°
2026-05-06 17:24 51.71611 8.51911 36828 ft 468 kts 104°
2026-05-06 17:25 51.70323 8.62122 36836 ft 468 kts 104°
2026-05-06 17:25 51.69017 8.72397 36824 ft 468 kts 105°
2026-05-06 17:26 51.67695 8.82664 36824 ft 468 kts 105°
2026-05-06 17:26 51.66366 8.92930 36824 ft 468 kts 105°
2026-05-06 17:27 51.65026 9.03181 36826 ft 468 kts 105°
2026-05-06 17:27 51.63682 9.13430 36819 ft 468 kts 105°
2026-05-06 17:28 51.62333 9.23603 36815 ft 467 kts 105°
2026-05-06 17:28 51.60970 9.33835 36802 ft 467 kts 105°
2026-05-06 17:29 51.59603 9.44042 36801 ft 467 kts 105°
2026-05-06 17:29 51.58225 9.54260 36808 ft 467 kts 105°
2026-05-06 17:30 51.56836 9.64452 36797 ft 467 kts 106°
2026-05-06 17:30 51.56135 9.69550 36898 ft 467 kts 106°
2026-05-06 17:30 51.55438 9.74611 36795 ft 462 kts 106°
2026-05-06 17:31 51.54054 9.84646 36784 ft 459 kts 106°
2026-05-06 17:31 51.52659 9.94676 36783 ft 460 kts 106°
2026-05-06 17:32 51.51255 10.04712 36783 ft 461 kts 106°
2026-05-06 17:32 51.49850 10.14733 36760 ft 461 kts 106°
2026-05-06 17:33 51.48442 10.24697 36764 ft 461 kts 106°
2026-05-06 17:33 51.47012 10.34741 36766 ft 462 kts 106°
2026-05-06 17:34 51.45565 10.44783 36769 ft 462 kts 107°
2026-05-06 17:34 51.44093 10.54813 36770 ft 462 kts 107°
2026-05-06 17:35 51.42521 10.64798 36752 ft 462 kts 108°
2026-05-06 17:35 51.40904 10.74762 36757 ft 462 kts 108°
2026-05-06 17:36 51.38509 10.89668 36761 ft 463 kts 108°
2026-05-06 17:36 51.36905 10.99649 36760 ft 463 kts 108°
2026-05-06 17:37 51.35289 11.09615 36741 ft 463 kts 109°
2026-05-06 17:37 51.33663 11.19565 36763 ft 462 kts 109°
2026-05-06 17:38 51.32307 11.27833 36763 ft 462 kts 109°
2026-05-06 17:38 51.30665 11.37817 36766 ft 462 kts 109°
2026-05-06 17:39 51.29030 11.47673 36771 ft 461 kts 109°
2026-05-06 17:39 51.27357 11.57562 36755 ft 461 kts 109°
2026-05-06 17:40 51.25679 11.67447 36765 ft 461 kts 109°
2026-05-06 17:40 51.24005 11.77339 36761 ft 461 kts 109°
2026-05-06 17:41 51.22330 11.87226 36767 ft 462 kts 109°
2026-05-06 17:41 51.20641 11.97104 36743 ft 461 kts 110°
2026-05-06 17:42 51.18947 12.06979 36752 ft 461 kts 110°
2026-05-06 17:42 51.17250 12.16836 36748 ft 461 kts 109°
2026-05-06 17:43 51.15552 12.26647 36741 ft 462 kts 110°
2026-05-06 17:43 51.13817 12.36496 36741 ft 462 kts 110°
2026-05-06 17:44 51.12066 12.46365 36716 ft 463 kts 110°
2026-05-06 17:44 51.10303 12.56236 36725 ft 464 kts 110°
2026-05-06 17:45 51.08528 12.66126 36730 ft 465 kts 110°
2026-05-06 17:45 51.06748 12.76025 36738 ft 466 kts 111°
2026-05-06 17:46 51.04951 12.85927 36752 ft 466 kts 111°
2026-05-06 17:46 51.03143 12.95829 36742 ft 467 kts 111°
2026-05-06 17:47 51.01327 13.05748 36752 ft 467 kts 111°
2026-05-06 17:47 50.99508 13.15649 36757 ft 468 kts 111°
2026-05-06 17:48 50.97684 13.25486 36760 ft 468 kts 111°
2026-05-06 17:48 50.95841 13.35390 36719 ft 468 kts 111°
2026-05-06 17:49 50.94945 13.40350 36456 ft 467 kts 111°
2026-05-06 17:49 50.94068 13.45296 36200 ft 467 kts 110°
2026-05-06 17:49 50.93193 13.50253 35946 ft 467 kts 110°
2026-05-06 17:49 50.92303 13.55201 35695 ft 466 kts 111°
2026-05-06 17:50 50.91391 13.60133 35443 ft 467 kts 111°
2026-05-06 17:50 50.90456 13.65056 35196 ft 466 kts 113°
2026-05-06 17:50 50.89230 13.69763 34948 ft 459 kts 123°
2026-05-06 17:50 50.87617 13.74089 34466 ft 454 kts 130°
2026-05-06 17:51 50.85670 13.78025 33618 ft 455 kts 136°
2026-05-06 17:51 50.83640 13.81888 32727 ft 458 kts 135°
2026-05-06 17:51 50.81602 13.85781 31892 ft 460 kts 135°
2026-05-06 17:51 50.79775 13.89928 31411 ft 460 kts 126°
2026-05-06 17:52 50.78219 13.94337 30785 ft 458 kts 124°
2026-05-06 17:52 50.76686 13.98718 30195 ft 454 kts 124°
2026-05-06 17:52 50.75157 14.03066 29551 ft 451 kts 124°
2026-05-06 17:52 50.73641 14.07361 28979 ft 445 kts 124°
2026-05-06 17:53 50.72150 14.11581 28627 ft 435 kts 125°
2026-05-06 17:53 50.70684 14.15716 28059 ft 429 kts 125°
2026-05-06 17:53 50.69233 14.19802 27513 ft 424 kts 125°
2026-05-06 17:53 50.67796 14.23839 26977 ft 420 kts 125°
2026-05-06 17:54 50.66371 14.27832 26441 ft 416 kts 125°
2026-05-06 17:54 50.64961 14.31776 25914 ft 412 kts 125°
2026-05-06 17:54 50.63560 14.35692 25403 ft 408 kts 125°
2026-05-06 17:54 50.61944 14.39278 24907 ft 395 kts 140°
2026-05-06 17:55 50.59822 14.41862 24433 ft 380 kts 156°
2026-05-06 17:55 50.57395 14.43302 23965 ft 369 kts 172°
2026-05-06 17:55 50.54883 14.43603 23402 ft 358 kts 187°
2026-05-06 17:55 50.52468 14.42813 22698 ft 352 kts 202°
2026-05-06 17:56 50.50313 14.41060 21976 ft 348 kts 214°
2026-05-06 17:56 50.48299 14.38963 21261 ft 346 kts 214°
2026-05-06 17:56 50.46295 14.36909 20574 ft 343 kts 212°
2026-05-06 17:56 50.44144 14.35321 19892 ft 342 kts 200°
2026-05-06 17:57 50.41836 14.34495 19222 ft 341 kts 188°
2026-05-06 17:57 50.39464 14.34452 18553 ft 342 kts 177°
2026-05-06 17:57 50.37161 14.35385 17886 ft 346 kts 159°
2026-05-06 17:57 50.35030 14.37161 17129 ft 346 kts 155°
2026-05-06 17:58 50.32939 14.39006 16413 ft 344 kts 154°
2026-05-06 17:58 50.30869 14.40861 15724 ft 341 kts 154°
2026-05-06 17:58 50.28845 14.42683 15047 ft 338 kts 154°
2026-05-06 17:58 50.26814 14.44505 14407 ft 335 kts 154°
2026-05-06 17:59 50.24797 14.46307 13763 ft 333 kts 154°
2026-05-06 17:59 50.22792 14.48095 13085 ft 331 kts 154°
2026-05-06 17:59 50.20803 14.49870 12410 ft 327 kts 154°
2026-05-06 17:59 50.18835 14.51626 11762 ft 324 kts 154°
2026-05-06 18:00 50.16890 14.53357 11129 ft 321 kts 154°
2026-05-06 18:00 50.14959 14.55075 10514 ft 318 kts 154°
2026-05-06 18:00 50.13054 14.56768 10063 ft 310 kts 154°
2026-05-06 18:00 50.11235 14.58391 9941 ft 293 kts 154°
2026-05-06 18:01 50.09504 14.59945 9664 ft 284 kts 154°
2026-05-06 18:01 50.07808 14.61467 9233 ft 280 kts 154°
2026-05-06 18:01 50.06120 14.62969 8818 ft 277 kts 154°
2026-05-06 18:01 50.04446 14.64444 8742 ft 277 kts 154°
2026-05-06 18:02 50.02762 14.65926 8751 ft 278 kts 154°
2026-05-06 18:02 50.01083 14.67403 8562 ft 276 kts 154°
2026-05-06 18:02 49.99413 14.68856 8104 ft 273 kts 156°
2026-05-06 18:02 49.97630 14.69701 7632 ft 267 kts 173°
2026-05-06 18:03 49.95797 14.70098 7179 ft 265 kts 175°
2026-05-06 18:03 49.93970 14.70282 6730 ft 261 kts 188°
2026-05-06 18:03 49.92308 14.69296 6331 ft 258 kts 216°
2026-05-06 18:03 49.91189 14.67158 5881 ft 260 kts 248°
2026-05-06 18:04 49.91077 14.64394 5470 ft 262 kts 285°
2026-05-06 18:04 49.92062 14.62120 5343 ft 253 kts 319°
2026-05-06 18:04 49.93373 14.60453 5191 ft 240 kts 310°
2026-05-06 18:04 49.94356 14.58472 5060 ft 224 kts 304°
2026-05-06 18:05 49.95240 14.56570 4937 ft 210 kts 304°
2026-05-06 18:05 49.96089 14.54812 4755 ft 199 kts 305°
2026-05-06 18:05 49.96916 14.53113 4431 ft 196 kts 305°
2026-05-06 18:05 49.97736 14.51433 4084 ft 194 kts 305°
2026-05-06 18:06 49.98550 14.49764 4004 ft 194 kts 305°
2026-05-06 18:06 49.99367 14.48091 4009 ft 195 kts 306°
2026-05-06 18:06 50.00186 14.46410 3989 ft 196 kts 305°
2026-05-06 18:06 50.01009 14.44720 3818 ft 193 kts 306°
2026-05-06 18:07 50.01799 14.43099 3587 ft 182 kts 306°
2026-05-06 18:07 50.02541 14.41576 3367 ft 170 kts 307°
2026-05-06 18:07 50.03229 14.40161 3148 ft 158 kts 307°
2026-05-06 18:07 50.03879 14.38822 2946 ft 152 kts 308°
2026-05-06 18:08 50.04498 14.37547 2752 ft 143 kts 308°
2026-05-06 18:08 50.05078 14.36353 2569 ft 137 kts 308°
2026-05-06 18:08 50.05656 14.35163 2384 ft 135 kts 309°
2026-05-06 18:08 50.06213 14.34015 2212 ft 134 kts 308°
2026-05-06 18:09 50.06775 14.32856 2032 ft 135 kts 309°
2026-05-06 18:09 50.07340 14.31691 1849 ft 135 kts 308°
2026-05-06 18:09 50.07904 14.30527 1669 ft 135 kts 310°
2026-05-06 18:09 50.08469 14.29361 1483 ft 135 kts 309°
2026-05-06 18:10 50.09032 14.28198 1305 ft 134 kts 309°
2026-05-06 18:10 50.09577 14.27097 1215 ft 116 kts 308°
2026-05-06 18:10 50.09953 14.26298 1203 ft 67 kts 306°
2026-05-06 18:10 50.10141 14.25905 1190 ft 36 kts 308°
2026-05-06 18:11 50.10275 14.25696 1188 ft 19 kts 334°
2026-05-06 18:11 50.10349 14.25659 1186 ft 6 kts 351°
2026-05-06 18:11 50.10351 14.25658 1186 ft 0 kts 351°
2026-05-06 18:12 50.10355 14.25658 1186 ft 2 kts 352°
2026-05-06 18:12 50.10378 14.25654 1186 ft 5 kts 356°
2026-05-06 18:12 50.10411 14.25655 1186 ft 4 kts
2026-05-06 18:13 50.10445 14.25664 1186 ft 0 kts 12°
2026-05-06 18:13 50.10450 14.25665 1186 ft 2 kts 13°
2026-05-06 18:13 50.10475 14.25677 1186 ft 6 kts 18°
2026-05-06 18:14 50.10534 14.25716 1183 ft 13 kts 25°
2026-05-06 18:14 50.10628 14.25814 1178 ft 21 kts 34°
2026-05-06 18:14 50.10749 14.25944 1173 ft 19 kts 35°
2026-05-06 18:14 50.10879 14.26083 1176 ft 27 kts 34°
2026-05-06 18:15 50.11004 14.26217 1173 ft 20 kts 34°
2026-05-06 18:15 50.11082 14.26322 1172 ft 14 kts 71°
2026-05-06 18:15 50.11058 14.26482 1172 ft 11 kts 126°
2026-05-06 18:15 50.11013 14.26562 1175 ft 9 kts 132°
2026-05-06 18:16 50.10966 14.26648 1176 ft 10 kts 129°
2026-05-06 18:16 50.10933 14.26681 1176 ft 6 kts 192°
2026-05-06 18:16 50.10909 14.26657 1177 ft 4 kts 218°
2026-05-06 18:16 50.10898 14.26644 1177 ft 0 kts 219°